Welcome to the New NWS' Forecast!
Most changes are behind the scenes, but click here for differences you might notice.
Latest weather observations around

Alabaster, Shelby County Airport (KEET)

Using English Units (Switch to International System of Units)
Date/ Time (CST) Wind (mph) Vis. (mi) Weather Sky Cond. Temp (°F) Rel. Humidity Wind Chill (°F) Heat Index (°F) Pressure Precip. (in)
Air Dwpt 6 hour Altimeter (inHg) Sea level (inHg) 1 hr 3 hr 6 hr
Max Min
Jan 23 08:53 WNW 13 10 Clear CLR 47 31     53% 41   30.07 30.06      
Jan 23 07:53 WNW 7 10 Clear CLR 43 31     62% 39   30.04 30.04      
Jan 23 06:53 W 6 10 Clear CLR 42 31     64% 38   30.02 30.02      
Jan 23 05:53 WNW 3 10 Clear CLR 40 31     70% 38   30 30      
Jan 23 04:53 WNW 6 10 Clear CLR 44 30     58% 41   29.99 29.98      
Jan 23 03:53 WNW 6 10 Clear CLR 45 31     58% 42   29.98 29.97      
Jan 23 02:53 W 7 10 Clear CLR 47 31     53% 44   29.97 29.96      
Jan 23 01:53 WNW 8 10 Clear CLR 49 33     54% 45   29.96 29.96      
Jan 23 00:53 W 7 10 Clear CLR 51 35     54%     29.95 29.94      
Jan 22 23:53 5 10 Clear CLR 54 37     53%     29.94 29.93      
Jan 22 22:53 W 5 10 Clear CLR 57 42     57%     29.94 29.93      
Jan 22 22:12 SW 8 10 Partly Cloudy FEW008 SCT014 59 59     100%     29.93        
Jan 22 22:03 SW 6 10 Mostly Cloudy FEW007 BKN014 59 59     100%     29.92        
Jan 22 21:53 SSW 5 10 Cloudy BKN007 OVC014 59 59     100%     29.92 29.91      
Jan 22 21:23 SW 6 10 Cloudy BKN005 OVC010 60 60     100%     29.91        
Jan 22 20:53 SSW 6 6 Fog/Mist OVC003 59 59     100%     29.91 29.91      
Jan 22 20:27 SSW 6 3 Fog/Mist OVC002 59 59     100%     29.91        
Jan 22 20:07 S 5 1.25 Fog/Mist OVC002 58 58     100%     29.91        
Jan 22 19:53 S 3 2.5 Fog/Mist OVC003 58 58     100%     29.91 29.9      
Jan 22 19:51 S 5 3 Fog/Mist OVC003 57 57     100%     29.91        
Jan 22 19:27 SSW 3 2.5 Fog/Mist OVC003 57 57     100%     29.91        
Jan 22 19:15 S 5 3 Fog/Mist BKN004 57 57     100%     29.9        
Jan 22 19:00 SSE 6 4 Fog/Mist SCT004 57 57     100%     29.9        
Jan 22 18:53 SSE 5 2.5 Fog/Mist FEW004 57 57     100%     29.9 29.89      
Jan 22 18:41 S 3 2.5 Fog/Mist SCT004 57 57     100%     29.89        
Jan 22 18:14 SSE 5 6 Fog/Mist FEW005 57 57     100%     29.89        
Jan 22 17:53 SSE 5 7 Partly Cloudy SCT015 58 58     100%     29.88 29.87     0
Jan 22 17:49 SSE 5 7 Mostly Cloudy SCT015 BKN060 57 57     100%     29.88        
Jan 22 17:42 SSE 5 7 Mostly Cloudy BKN014 BKN060 58 58     100%     29.88        
Jan 22 16:53 SSE 6 10 Cloudy OVC015 60 59     96%     29.87 29.86      
Jan 22 15:53 SSE 6 10 Cloudy OVC011 62 60     93%     29.88 29.86      
Jan 22 15:34 SSE 7 10 Cloudy BKN012 BKN055 OVC100 62 59     90%     29.87        
Jan 22 15:16 SSE 8 10 Cloudy FEW012 BKN055 OVC110 63 60     90%     29.86        
Jan 22 15:07 SSE 7 10 Cloudy BKN010 OVC050 62 60     93%     29.85        
Jan 22 14:53 SSE 10 10 Cloudy BKN009 OVC060 61 59     93%     29.86 29.85   0  
Jan 22 14:18 SE 6 8 Cloudy BKN012 BKN017 OVC043 59 58     96%     29.87        
Jan 22 14:09 SE 5 8 Cloudy BKN016 BKN024 OVC043 58 57     97%     29.87        
Jan 22 13:53 SE 3 7 Cloudy BKN014 BKN025 OVC047 58 57     97%     29.88 29.87 0    
Jan 22 13:35 Calm 3 Light Rain and Fog/Mist SCT016 BKN029 OVC055 57 57     100%     29.88   0    
Jan 22 13:19 ESE 7 2.5 Light Rain and Fog/Mist SCT015 BKN038 OVC070 57 57     100%     29.9   0    
Jan 22 13:13 ESE 6 3 Light Rain and Fog/Mist BKN015 BKN031 OVC045 57 57     100%         0    
Jan 22 13:10 E 3 2 Rain and Fog/Mist SCT013 BKN019 OVC050 57 57     100%         0    
Jan 22 12:53 ESE 3 1.25 Rain and Fog/Mist OVC013 56 56     100%     29.94 29.94 0    
Jan 22 12:38 SSW 3 1.25 Rain and Fog/Mist OVC013 57 55     93%     29.96   0    
Jan 22 11:53 3 10 Light Rain OVC014 59 54     83%     29.96 29.96 0   0
Jan 22 11:40 Calm 10 Light Rain OVC014 59 54     83%     29.97   0    
Jan 22 10:53 SSE 7 10 Cloudy OVC015 60 53     78%     30 29.99      
Jan 22 10:05 SE 7 10 Cloudy OVC015 59 51     75%     30.01        
Jan 22 09:53 SE 8 10 Cloudy OVC014 58 50     75%     30.02 30.01      
Jan 22 09:39 SSE 8 10 Cloudy OVC014 58 50     75%     30.03        
Jan 22 08:53 6 10 Cloudy SCT016 BKN027 OVC036 56 48     75%     30.03 30.03      
Jan 22 08:08 SE 6 6 Haze SCT023 OVC031 55 46     72%     30.03        
Jan 22 07:53 3 10 Cloudy BKN023 OVC029 54 46     74%     30.03 30.02      
Jan 22 06:53 SE 7 10 Mostly Cloudy BKN025 BKN033 53 44     71%     30.03 30.03      
Jan 22 06:12 ESE 3 10 Mostly Cloudy BKN026 51 42     71%     30.03        
Jan 22 05:53 Calm 10 Clear CLR 51 42     71%     30.03 30.03      
Jan 22 04:53 Calm 10 Clear CLR 52 42     69%     30.02 30.01      
Jan 22 03:53 5 10 Clear CLR 52 43     71%     30.02 30.01      
Jan 22 02:53 SSE 3 10 Clear CLR 51 43     74%     30.06 30.05      
Jan 22 01:53 Calm 10 Clear CLR 49 43     80%     30.06 30.05      
Jan 22 00:53 Calm 10 Clear CLR 50 44     80%     30.06 30.05      
Jan 21 23:53 Calm 10 Clear CLR 52 44     74%     30.08 30.07      
Jan 21 22:53 SE 3 10 Clear CLR 56 45     67%     30.11 30.1      
Jan 21 21:53 ESE 5 10 Clear CLR 56 45     67%     30.12 30.11      
Jan 21 20:53 Calm 10 Clear CLR 52 44     74%     30.13 30.12      
Jan 21 19:53 ESE 3 10 Clear CLR 56 45     67%     30.12 30.12      
Jan 21 18:53 SE 3 10 Clear CLR 59 45     60%     30.14 30.14      
Jan 21 17:53 SE 3 10 Clear CLR 59 45     60%     30.14 30.14      
Jan 21 16:53 SE 3 10 Clear CLR 65 45     48%     30.14 30.14      
Jan 21 15:53 6 10 Clear CLR 70 45     41%     30.13 30.12      
Jan 21 14:53 SSE 9 10 Clear CLR 70 44     39%     30.14 30.13      
Jan 21 13:53 S 6 10 Clear CLR 70 44     39%     30.15 30.14      
Jan 21 12:53 S 10 10 Clear CLR 69 44     40%     30.17 30.16      
Jan 21 11:53 5 10 Clear CLR 66 45     47%     30.21 30.21      
Jan 21 10:53 3 10 Clear CLR 61 43     52%     30.26 30.26      
Jan 21 09:53 5 10 Clear CLR 55 42     62%     30.28 30.28      
Jan 21 08:53 E 5 10 Clear CLR 52 41     66%     30.27 30.27      
Jan 21 07:53 Calm 10 Clear CLR 40 38     93%     30.26 30.26      
Jan 21 06:53 Calm 10 Clear CLR 35 33     92%     30.23 30.24      
Jan 21 05:53 Calm 10 Clear CLR 35 34     96%     30.23 30.23      
Jan 21 04:53 Calm 10 Clear CLR 36 35     96%     30.22 30.22      
Jan 21 03:53 Calm 10 Clear CLR 36 35     96%     30.22 30.22      
Jan 21 02:53 Calm 10 Clear CLR 37 34     89%     30.21 30.21      
Jan 21 01:53 Calm 10 Clear CLR 37 36     96%     30.23 30.22      
Jan 21 00:53 Calm 10 Clear CLR 39 37     93%     30.22 30.21      
Jan 20 23:53 Calm 10 Clear CLR 41 36     82%     30.23 30.22      
Jan 20 22:53 Calm 10 Clear CLR 40 36     86%     30.24 30.24      
Jan 20 21:53 Calm 10 Clear CLR 42 37     82%     30.24 30.24      
Jan 20 20:53 Calm 10 Clear CLR 44 38     79%     30.25 30.24      
Jan 20 19:53 Calm 10 Clear CLR 45 39     80%     30.25 30.26      
Jan 20 18:53 Calm 10 Clear CLR 50 40     68%     30.24 30.24      
Jan 20 17:53 S 3 10 Cloudy OVC080 55 41     59%     30.24 30.24      
Jan 20 16:53 S 5 10 Clear CLR 61 41     48%     30.22 30.22      
Jan 20 15:53 SSE 9 10 Clear CLR 64 40     41%     30.21 30.21      
Jan 20 14:53 S 3 10 Clear CLR 63 38     40%     30.22 30.21      
Jan 20 13:53 SSW 6 10 Clear CLR 62 36     38%     30.23 30.23      
Jan 20 12:53   10 Clear CLR 61 34     36%     30.25 30.25      
Jan 20 11:53 SSW 8 10 Mostly Clear FEW060 60 32     35%     30.28 30.27      
Jan 20 10:53 SW 6 10 Clear CLR 57 27     31%     30.31 30.31      
Jan 20 09:53 WSW 6 10 Clear CLR 53 23     31%     30.32 30.32      
Jun 12 05:53 Calm 10 Mostly Clear FEW023 72 71     97%   73 30.14 30.12      
Jun 11 18:53 SSE 5 10 Clear CLR 86 69     57%   90 30.08 30.05      
Jun 11 11:53 SE 6 10 Clear CLR 85 66     53%   87 30.15 30.13      
Jun 11 10:53 ESE 7 10 Mostly Clear FEW031 83 71     67%   88 30.16 30.14      
Jun 11 01:53 Calm 10 Clear   71 65     81%   72 30.08 30.06      
Jun 10 03:53 Calm 10 Mostly Cloudy BKN060 BKN075 66 65     96%     30.01 29.98      
Jun 09 21:53 Calm 10 Clear CLR 70 66     87%     29.98 29.96      
Jun 08 19:53 Calm 10 Clear CLR 72 64     76%   72 29.87 29.85      
Jun 07 07:53 N 6 10 Clear CLR 70 60     71%     29.82 29.8      
Jun 06 08:20 NNW 5 3 Light Rain and Fog/Mist SCT006 OVC017 71 71     100%   73 29.81   0    
Jun 06 07:28 Calm 5 Light Rain and Fog/Mist BKN013 BKN017 OVC043 71 71     100%   73 29.81   0    
Jun 06 06:10 NW 6 1.75 Rain and Fog/Mist BKN013 BKN020 OVC024 70 70     100%     29.81   0    
Jun 06 05:05 Calm 3 Rain and Fog/Mist FEW031 BKN042 OVC070 71 71     100%   73 29.79   0    
Jun 05 21:53 Calm 10 Clear   72 72     100%   74 29.83 29.8   0